Weather observations for the past three days for
Decatur Airport
Imperial (Metric)
Date Time (cdt) Wind (mph) Vis. (mi.) Weather Sky Cond. Temperature (ºF) Relative Humidity Wind Chill (°F) Heat Index (°F) Pressure Precipitation (in)
Air Dwpt 6 hour altimeter (in) sea level (mb) 1 hr 3 hr 6 hr
Max. Min.
16 02:54 S 15 10.00 Thunderstorm Light Rain FEW050 BKN100 OVC120 71.1 70 96% 29.84 1009.7 0.56
16 01:54 SW 7 2.50 Thunderstorm Heavy Rain Fog/Mist BKN032 OVC070 71.1 70 96% 29.89 1011.3 0.83
16 00:54 SE 5 1.50 Thunderstorm Heavy Rain Fog/Mist OVC018 70 69.1 89.1 70 97% 29.91 1012.0 0.87 1.63
15 23:54 SE 5 10.00 Mostly Cloudy BKN065 71.1 70 96% 29.86 1010.6 0.01
15 22:54 N 8 5.00 Thunderstorm Heavy Rain Fog/Mist FEW009 BKN043 OVC120 71.1 69.1 94% 29.89 1011.5 0.75
15 21:54 N 38 G 52 10.00 Squalls and Windy FEW034 FEW055 BKN110 82 71.1 69% 86 29.93 1012.9
15 20:54 S 12 10.00 Fair CLR 86 78.1 77% 98 29.82 1009.0
15 19:54 S 13 10.00 Fair CLR 89.1 79 72% 105 29.78 1007.6
15 18:54 S 12 10.00 Fair CLR 91 80.1 93.9 90 70% 109 29.77 1007.2
15 17:54 S 17 G 25 10.00 Fair CLR 91.9 81 70% 112 29.79 1007.9
15 16:54 S 17 G 23 10.00 Fair CLR 93 80.1 66% 112 29.81 1008.6
15 15:54 SW 17 10.00 Fair CLR 93 79 64% 110 29.83 1009.5
15 14:54 SW 13 G 20 10.00 Fair CLR 93 81 68% 114 29.86 1010.3
15 13:54 SW 15 10.00 Fair CLR 91.9 81 70% 112 29.87 1010.7
15 12:54 SW 9 10.00 Fair CLR 91 80.1 91 75 70% 109 29.89 1011.3
15 11:54 SW 12 10.00 Fair CLR 89.1 79 72% 105 29.91 1012.0
15 10:54 SW 10 G 21 10.00 Fair CLR 88 78.1 73% 102 29.91 1012.0
15 09:54 SW 13 10.00 Fair CLR 84.9 77 77% 95 29.9 1011.7
15 08:54 SW 15 10.00 Fair CLR 82 75 79% 89 29.9 1011.8
15 07:54 S 12 10.00 Fair CLR 79 73.9 85% 83 29.91 1012.1
15 06:54 S 9 10.00 Fair CLR 75 71.1 81 69.1 88% 75 29.92 1012.4 0.19
15 05:54 S 8 10.00 Fair CLR 72 69.1 91% 29.92 1012.5
15 04:54 SW 9 10.00 Fair CLR 71.1 68 90% 29.91 1012.1
15 03:54 S 7 10.00 Mostly Cloudy BKN044 BKN055 70 68 93% 29.97 1014.1 0.19 0.19
15 02:54 NE 8 10.00 Thunderstorm in Vicinity FEW027 OVC036 71.1 66 84% 30 1015.2
15 01:54 SW 12 10.00 Partly Cloudy SCT060 81 75.9 85% 87 29.94 1013.1
15 00:54 SW 15 G 23 10.00 Fair CLR 81 75.9 89.1 81 85% 87 29.92 1012.4
14 23:54 SW 15 10.00 Fair CLR 82 75.9 82% 89 29.94 1013.1
14 22:54 SW 13 10.00 Fair CLR 84 75.9 77% 93 29.94 1013.0
14 21:54 S 14 10.00 Fair CLR 84 77 80% 94 29.9 1011.8
14 20:54 S 15 10.00 Fair CLR 84.9 78.1 80% 97 29.92 1012.3
14 19:54 S 12 10.00 Fair CLR 87.1 77 72% 99 29.93 1012.8
14 18:54 S 14 G 25 10.00 Fair CLR 89.1 77 91 88 68% 102 29.94 1013.0
14 17:54 S 21 G 26 10.00 Fair and Breezy CLR 90 78.1 68% 105 29.94 1013.0
14 16:54 S 20 10.00 Fair CLR 90 77 66% 103 29.95 1013.5
14 15:54 SW 15 G 25 10.00 Fair CLR 91 75 59% 102 29.97 1014.3
14 14:54 S 15 G 24 10.00 Fair CLR 90 75.9 63% 102 29.99 1014.8
14 13:54 SW 15 10.00 Fair CLR 89.1 77 68% 102 29.99 1014.8
14 12:54 S 9 10.00 Fair CLR 89.1 75.9 89.1 78.1 65% 100 30.01 1015.5
14 11:54 N 5 10.00 Mostly Cloudy BKN032 BKN043 87.1 75 67% 97 30.06 1017.2
14 10:54 W 6 10.00 A Few Clouds FEW120 84.9 75.9 75% 94 30.09 1018.2
14 09:54 SW 13 G 20 10.00 Fair CLR 84.9 75.9 75% 94 30.06 1017.0
14 08:54 SW 15 10.00 Fair CLR 82.9 75 77% 90 30.05 1016.8
14 07:54 SW 13 10.00 Fair CLR 79 73.9 85% 83 30.06 1017.1
14 06:54 SW 9 10.00 Fair CLR 78.1 73.9 79 75.9 87% 81 30.06 1017.3
14 05:54 SW 8 10.00 Fair CLR 77 73.9 90% 78 30.05 1016.7
14 04:54 S 9 10.00 Fair CLR 77 73.9 90% 78 30.03 1016.1
14 03:54 SW 9 10.00 Fair CLR 77 73.9 90% 78 30.05 1016.7
14 02:54 S 8 10.00 Fair CLR 77 73.9 90% 78 30.06 1017.0
14 01:54 SW 8 10.00 Fair CLR 78.1 73.9 87% 81 30.07 1017.7
14 00:54 S 12 10.00 Fair CLR 79 75 86 79 88% 83 30.08 1018.0
13 23:54 S 14 10.00 Fair CLR 81 75 82% 87 30.1 1018.4
13 22:54 S 10 10.00 Fair CLR 82 75.9 82% 89 30.1 1018.5
13 21:54 S 9 10.00 Fair CLR 82 75.9 82% 89 30.09 1018.2
13 20:54 S 8 10.00 Fair CLR 84 75.9 77% 93 30.08 1017.7
13 19:54 S 10 10.00 Fair CLR 86 77 75% 97 30.08 1017.9
13 18:54 S 12 10.00 Fair CLR 86 77 91 86 75% 97 30.08 1018.1
13 17:54 S 13 10.00 Fair CLR 89.1 75.9 65% 100 30.09 1018.2
13 16:54 S 13 10.00 A Few Clouds FEW070 89.1 75.9 65% 100 30.1 1018.6
13 15:54 SW 14 10.00 Partly Cloudy FEW038 FEW080 SCT110 90 75.9 63% 102 30.11 1018.8
13 14:54 SW 15 G 21 10.00 A Few Clouds FEW039 90 73.9 59% 99 30.12 1019.3
13 13:54 SW 13 10.00 A Few Clouds FEW036 89.1 75.9 65% 100 30.13 1019.7
13 12:54 SW 13 10.00 Fair CLR 88 75.9 88 73 68% 99 30.16 1020.6
13 11:54 S 12 10.00 A Few Clouds FEW026 87.1 75.9 70% 98 30.18 1021.2
13 10:54 SW 9 10.00 Fair CLR 84.9 75 72% 93 30.18 1021.2
13 09:54 S 13 10.00 Fair CLR 84 71.1 65% 89 30.17 1020.9
13 08:54 S 7 10.00 Fair CLR 81 72 74% 85 30.18 1021.3
13 07:54 S 3 10.00 Fair CLR 78.1 71.1 79% 80 30.18 1021.2
13 06:54 S 5 10.00 Fair CLR 73 70 73 68 90% 30.17 1021.1
13 05:54 SE 3 10.00 Fair CLR 70 68 93% 30.16 1020.8
13 04:54 Calm 10.00 Fair CLR 70 68 93% 30.15 1020.4
13 03:54 Calm 10.00 Fair CLR 70 68 93% 30.14 1020.0
Date Time (cdt) Wind (mph) Vis. (mi.) Weather Sky Cond. Air Dwpt Max. Min. Relative Humidity Wind Chill (°F) Heat Index (°F) altimeter (in) sea level (mb) 1 hr 3 hr 6 hr
6 hour
Temperature (ºF) Pressure Precipitation (in)